EW9423 Weather Reports


Display with metric or nautical units.
time (UTC)temp
F
wind
direction
speed
MPH
gust
MPH
rain 1hr
in
rain 24hr
in
rain mn
in
humidity
%
barometer
mb
20260507181017 53 98 2.0 7.0 0.00 0.00 0.00 56 1019.6
20260507180017 54 120 2.0 9.0 0.00 0.00 0.00 55 1019.4
20260507175037 54 111 2.0 7.0 0.00 0.00 0.00 54 1019.4
20260507174017 54 117 2.0 6.0 0.00 0.00 0.00 54 1019.3
20260507173017 54 128 3.0 9.0 0.00 0.00 0.00 52 1019.3
20260507172017 55 103 3.0 10.0 0.00 0.00 0.00 50 1019.2
20260507171017 55 123 4.0 9.0 0.00 0.00 0.00 53 1019.1
20260507170017 55 114 2.0 6.0 0.00 0.00 0.00 51 1019.0
20260507165017 55 102 2.0 5.0 0.00 0.00 0.00 49 1019.0
20260507164017 55 113 2.0 7.0 0.00 0.00 0.00 48 1018.9
20260507163017 55 101 3.0 8.0 0.00 0.00 0.00 46 1018.9
20260507162017 56 105 3.0 8.0 0.00 0.00 0.00 46 1018.9
20260507161017 57 115 3.0 10.0 0.00 0.00 0.00 44 1018.9
20260507160017 57 103 4.0 9.0 0.00 0.00 0.00 40 1018.7
20260507155037 57 99 4.0 10.0 0.00 0.00 0.00 42 1018.7
20260507154017 57 77 2.0 8.0 0.00 0.00 0.00 40 1018.6
20260507153017 57 84 3.0 10.0 0.00 0.00 0.00 43 1018.5
20260507152036 58 97 3.0 8.0 0.00 0.00 0.00 45 1018.4
20260507151017 57 121 2.0 7.0 0.00 0.00 0.00 47 1018.3
20260507150017 57 127 2.0 6.0 0.00 0.00 0.00 48 1018.4
20260507145017 57 140 2.0 7.0 0.00 0.00 0.00 46 1018.4
20260507144016 58 135 2.0 6.0 0.00 0.00 0.00 47 1018.4
20260507143017 58 99 1.0 6.0 0.00 0.00 0.00 43 1018.3
20260507142018 60 81 1.0 6.0 0.00 0.00 0.00 40 1018.3
20260507141017 61 91 2.0 7.0 0.00 0.00 0.00 40 1018.3
20260507140017 60 120 1.0 6.0 0.00 0.00 0.00 44 1018.2
20260507135017 61 118 1.0 4.0 0.00 0.00 0.00 39 1018.2
20260507134017 62 144 2.0 7.0 0.00 0.00 0.00 38 1018.3
20260507133036 62 151 2.0 7.0 0.00 0.00 0.00 39 1018.3
20260507132016 62 118 2.0 5.0 0.00 0.00 0.00 39 1018.2
20260507131017 63 86 2.0 8.0 0.00 0.00 0.00 34 1018.1
20260507130016 63 150 3.0 9.0 0.00 0.00 0.00 38 1018.2
20260507125057 63 238 1.0 6.0 0.00 0.00 0.00 32 1018.2
20260507124016 62 189 2.0 6.0 0.00 0.00 0.00 32 1018.1
20260507123016 62 312 1.0 6.0 0.00 0.00 0.00 32 1018.1
20260507122016 62 278 1.0 5.0 0.00 0.00 0.00 33 1018.1
20260507121016 62 344 1.0 8.0 0.00 0.00 0.00 32 1018.1
20260507120016 61 337 1.0 6.0 0.00 0.00 0.00 31 1018.1
20260507115016 62 52 2.0 5.0 0.00 0.00 0.00 30 1018.0
20260507114017 61 15 1.0 4.0 0.00 0.00 0.00 32 1018.1
20260507113016 61 334 1.0 8.0 0.00 0.00 0.00 32 1018.1
20260507112017 61 337 2.0 8.0 0.00 0.00 0.00 32 1018.3
20260507111016 62 351 1.0 3.0 0.00 0.00 0.00 32 1018.3
20260507110016 61 163 2.0 5.0 0.00 0.00 0.00 35 1018.3
20260507105016 60 208 2.0 5.0 0.00 0.00 0.00 33 1018.3
20260507104017 60 317 1.0 4.0 0.00 0.00 0.00 30 1018.3
20260507103016 60 116 1.0 3.0 0.00 0.00 0.00 29 1018.2
20260507102036 60 116 0.0 4.0 0.00 0.00 0.00 30 1018.1
20260507101016 60 172 1.0 3.0 0.00 0.00 0.00 30 1018.0
20260507100016 59 182 2.0 5.0 0.00 0.00 0.00 31 1017.9
20260507095016 58 169 2.0 5.0 0.00 0.00 0.00 33 1017.9
20260507094016 57 275 1.0 3.0 0.00 0.00 0.00 27 1017.8
20260507093016 58 322 1.0 4.0 0.00 0.00 0.00 28 1017.8
20260507092016 59 221 2.0 5.0 0.00 0.00 0.00 27 1017.8
20260507091016 59 142 1.0 5.0 0.00 0.00 0.00 31 1017.8
20260507090016 58 151 1.0 5.0 0.00 0.00 0.00 35 1017.8
20260507085017 57 172 1.0 5.0 0.00 0.00 0.00 36 1017.7
20260507084016 57 173 2.0 4.0 0.00 0.00 0.00 36 1017.7
20260507083016 56 136 1.0 3.0 0.00 0.00 0.00 38 1017.8
20260507082016 56 30 0.0 2.0 0.00 0.00 0.00 36 1017.7
20260507081057 55 336 0.0 3.0 0.00 0.00 0.00 35 1017.6
20260507080016 53 322 0.0 3.0 0.00 0.00 0.00 39 1017.5
20260507075036 54 332 1.0 4.0 0.00 0.00 0.00 40 1017.3
20260507074016 54 323 1.0 4.0 0.00 0.00 0.00 42 1017.3
20260507073016 53 317 1.0 3.0 0.00 0.00 0.00 47 1017.3
20260507072016 53 300 1.0 3.0 0.00 0.00 0.00 45 1017.3
20260507071016 53 292 0.0 4.0 0.00 0.00 0.00 45 1017.2
20260507070016 53 319 0.0 2.0 0.00 0.00 0.00 44 1017.2
20260507065016 52 348 0.0 2.0 0.00 0.00 0.00 49 1017.1
20260507064016 51 320 1.0 3.0 0.00 0.00 0.00 46 1017.2
20260507063016 50 320 0.0 4.0 0.00 0.00 0.00 58 1017.0
20260507062016 50 320 0.0 2.0 0.00 0.00 0.00 62 1017.0
20260507061016 50 328 0.0 3.0 0.00 0.00 0.00 63 1016.9
20260507060016 47 0 0.0 0.0 0.00 0.00 0.00 75 1016.9
20260507055016 44 242 0.0 2.0 0.00 0.00 0.00 80 1016.8
20260507054016 41 340 0.0 1.0 0.00 0.00 0.00 86 1016.6
20260507053016 38 0 0.0 1.0 0.00 0.00 0.00 89 1016.5
20260507052016 36 0 0.0 0.0 0.00 0.00 0.00 90 1016.3
20260507051036 35 0 0.0 0.0 0.00 0.00 0.00 90 1016.2
20260507050056 34 0 0.0 0.0 0.00 0.00 0.00 91 1016.1
20260507045016 33 0 0.0 0.0 0.00 0.00 0.00 90 1016.2
20260507044016 33 0 0.0 0.0 0.00 0.00 0.00 90 1016.1
20260507043036 32 0 0.0 1.0 0.00 0.00 0.00 89 1016.0
20260507042016 32 0 0.0 1.0 0.00 0.00 0.00 89 1016.0
20260507041015 32 0 0.0 0.0 0.00 0.00 0.00 88 1015.9
20260507040016 32 0 0.0 0.0 0.00 0.00 0.00 88 1015.8
20260507035036 32 0 0.0 0.0 0.00 0.00 0.00 87 1015.7
20260507034016 32 0 0.0 0.0 0.00 0.00 0.00 87 1015.7
20260507033018 32 0 0.0 0.0 0.00 0.00 0.00 86 1015.6
20260507032018 32 0 0.0 0.0 0.00 0.00 0.00 86 1015.6
20260507031018 33 0 0.0 0.0 0.00 0.00 0.00 86 1015.6
20260507030018 33 0 0.0 0.0 0.00 0.00 0.00 86 1015.6
20260507025056 33 0 0.0 0.0 0.00 0.00 0.00 85 1015.6
20260507024017 34 0 0.0 0.0 0.00 0.00 0.00 85 1015.5
20260507023018 34 0 0.0 0.0 0.00 0.00 0.00 85 1015.5
20260507022038 34 0 0.0 0.0 0.00 0.00 0.00 85 1015.5
20260507021018 35 0 0.0 0.0 0.00 0.00 0.00 85 1015.4
20260507020037 35 0 0.0 0.0 0.00 0.00 0.00 85 1015.4
20260507015018 35 0 0.0 0.0 0.00 0.00 0.00 84 1015.4
20260507014038 35 0 0.0 0.0 0.00 0.00 0.00 84 1015.3
20260507013018 35 0 0.0 0.0 0.00 0.00 0.00 84 1015.3
20260507012018 35 0 0.0 0.0 0.00 0.00 0.00 84 1015.3
20260507011018 35 0 0.0 0.0 0.00 0.00 0.00 85 1015.2
20260507010018 35 0 0.0 0.0 0.00 0.00 0.00 85 1015.2
20260507005018 35 0 0.0 0.0 0.00 0.00 0.00 85 1015.2
20260507004016 34 0 0.0 0.0 0.00 0.00 0.00 85 1015.2
20260507003015 34 0 0.0 0.0 0.00 0.00 0.00 84 1015.2
20260507002015 34 0 0.0 2.0 0.00 0.00 0.00 84 1015.1
20260507001015 34 0 0.0 0.0 0.00 0.00 0.00 83 1015.1
20260507000015 34 0 0.0 0.0 0.00 0.00 0.00 81 1015.1
20260506235015 35 0 0.0 0.0 0.00 0.00 0.00 80 1015.0
20260506234015 35 0 0.0 0.0 0.00 0.00 0.00 80 1015.0
20260506233015 36 0 0.0 0.0 0.00 0.00 0.00 79 1015.1
20260506232015 36 0 0.0 0.0 0.00 0.00 0.00 79 1015.1
20260506231035 36 0 0.0 0.0 0.00 0.00 0.00 78 1015.2
20260506230015 37 0 0.0 0.0 0.00 0.00 0.00 76 1015.1
20260506225015 38 0 0.0 0.0 0.00 0.00 0.00 75 1015.0
20260506224015 38 0 0.0 0.0 0.00 0.00 0.00 74 1015.0
20260506223015 39 0 0.0 0.0 0.00 0.00 0.00 73 1015.0
20260506222015 39 0 0.0 0.0 0.00 0.00 0.00 72 1014.9
20260506221015 40 0 0.0 0.0 0.00 0.00 0.00 71 1014.9
20260506220015 41 0 0.0 0.0 0.00 0.00 0.00 71 1014.9
20260506215015 41 0 0.0 2.0 0.00 0.00 0.00 70 1014.8
20260506214015 41 324 0.0 2.0 0.00 0.00 0.00 68 1014.8
20260506213018 41 324 0.0 3.0 0.00 0.00 0.00 68 1014.7
20260506212037 42 0 0.0 0.0 0.00 0.00 0.00 67 1014.6
20260506211018 42 0 0.0 0.0 0.00 0.00 0.00 67 1014.5
20260506210018 42 0 0.0 2.0 0.00 0.00 0.00 66 1014.5
20260506205018 42 324 0.0 2.0 0.00 0.00 0.00 66 1014.4
20260506204018 43 0 0.0 1.0 0.00 0.00 0.00 65 1014.4
20260506203037 43 324 0.0 2.0 0.00 0.00 0.00 65 1014.4
20260506202017 43 324 0.0 2.0 0.00 0.00 0.00 64 1014.3
20260506201018 44 324 0.0 3.0 0.00 0.00 0.00 63 1014.3
20260506200017 44 324 0.0 2.0 0.00 0.00 0.00 62 1014.3
20260506195037 44 323 1.0 3.0 0.00 0.00 0.00 61 1014.2
20260506194037 45 324 1.0 3.0 0.00 0.00 0.00 60 1014.2
20260506193017 45 318 1.0 4.0 0.00 0.00 0.00 59 1014.1
20260506192017 46 322 1.0 3.0 0.00 0.00 0.00 58 1014.1
20260506191057 46 311 1.0 4.0 0.00 0.00 0.00 57 1014.0
20260506190018 47 324 2.0 4.0 0.00 0.00 0.00 56 1013.9
20260506185017 48 324 4.0 8.0 0.00 0.00 0.00 53 1013.9
20260506184017 49 322 2.0 6.0 0.00 0.00 0.00 51 1013.8
20260506183016 50 325 3.0 9.0 0.00 0.00 0.00 48 1013.7
20260506182017 50 324 3.0 8.0 0.00 0.00 0.00 46 1013.6